Airfield :
LOGIN :

Register | Disclaimer

   EN    FR    IT 

 










Legend :    VFR   Marginal VFR   IFR   Intensive IFR   Very Intensive IFR
Visi :
Ceiling :
>= 8 km
>= 3000ft
5 to 8 km
1000 to 3000 ft
1500m to 5 km
500 to 1000 ft
800 to 1500m
200 to 500 ft
< 800m
< 200 ft
Symbols :   Thunderstorms  Fog  Heavy snow  Heavy precipitations  Wind > 20 kt
SIGMETs :     Misc.  Thunderstorms  Icing  Turbulence  Mountain Waves  Volcanic Ashes







- Airport Elevation : 291 ft
- IATA code : ORY
- Download approach charts


LFPO - Paris-Orly

CURRENT METAR :
  • 251200Z 01008KT 330V070 9999 FEW040 OVC091 08/M03 Q1012 NOSIG

EXPIRED METARs :
  • 251130Z 01006KT 320V060 9999 FEW040 OVC086 08/M03 Q1013 NOSIG
  • 251100Z 02006KT 300V070 9999 FEW040 OVC086 08/M02 Q1013 NOSIG
  • 251030Z 35008KT 320V020 9999 FEW034 OVC083 08/M02 Q1013 NOSIG
  • 251000Z 02007KT 350V050 9999 SCT034 OVC076 08/M01 Q1012 NOSIG
  • 250930Z 36006KT 320V040 9999 BKN033 OVC070 08/01 Q1012 NOSIG

TAF TAF LFPO
Valid from the 25 at 12:00 until the 26 at 18:00 UTC


251100Z 2512/2618 01006KT CAVOK
TEMPO 2512/2517 SCT040
BECMG 2607/2609 SCT030
TEMPO 2610/2618 -SHRA BKN035 SCT050TCU
PROB30
TEMPO 2613/2618 02015G30KT 4000 -TSRA BKN020 SCT060CB
ATIS : +33 1 49 75 65 80
No reported NOTAMs for that airfield.



MET'MAP, your aeronautical weather chart ! - Copyright ORBIFLY December 2007 - Disclaimer

ORBIFLY MET'MAP TEAM :

Programming & Development : Alexandra Zaïnal
Concept & Development : Baudouin d'Aumeries
Co-Development & Prog : Marc-Olivier Méhu
Technical & hardware support : Manuel Goepfert

Contact : metmap@orbifly.com




SOURCES & CREDITS :

   NOAA